Location: Maddington
(51.2000°N, 1.9167°W)
Time: 16:22:27
(UTC+00:00)

Cosmos 1125 Rocket - Pass Details

Date: 18 June 2021
Orbit: 757 x 780 km, 74.0° (Epoch: 28 July)

Event Time Altitude Azimuth Distance (km) Brightness Sun altitude
Rises 00:33:52 0° 340° (NNW) 3,239 8.0 -15.2°
Reaches altitude 10° 00:37:22 10° 4° (N) 2,314 7.4 -15.1°
Maximum altitude 00:40:16 15° 38° (NE) 2,005 6.5 -15.1°
Drops below altitude 10° 00:43:10 10° 72° (ENE) 2,317 6.3 -15.0°
Sets 00:46:41 0° 96° (E) 3,246 6.8 -14.9°
